QPF
0.01 0.01 0.01 0.00 0.00 0.00 0.01 0.01 0.01 0.01 0.02 0.03 0.03 0.03 0.02 0.02 0.02 0.03 0.05 0.05 0.05 0.05 0.07 0.12 0.14 0.13 0.12 0.15 0.17 0.16 0.15 0.13 0.11 0.06 0.06 0.07 0.14 0.21 0.20 0.20 0.20 0.17 0.13
0.01 0.01 0.01 0.01 0.00 0.01 0.01 0.01 0.01 0.01 0.02 0.02 0.03 0.03 0.03 0.04 0.05 0.05 0.04 0.05 0.05 0.06 0.05 0.06 0.07 0.07 0.08 0.14 0.15 0.13 0.11 0.09 0.09 0.07 0.08 0.07 0.09 0.09 0.09 0.11 0.14 0.13 0.10
0.00 0.00 0.01 0.01 0.01 0.01 0.00 0.01 0.01 0.01 0.02 0.02 0.03 0.04 0.05 0.07 0.07 0.05 0.05 0.04 0.06 0.09 0.06 0.07 0.05 0.05 0.08 0.16 0.16 0.11 0.08 0.08 0.09 0.09 0.10 0.07 0.04 0.04 0.04 0.05 0.06 0.06 0.06
0.00 0.00 0.00 0.00 0.01 0.01 0.01 0.01 0.01 0.01 0.02 0.03 0.04 0.06 0.07 0.07 0.07 0.06 0.05 0.04 0.06 0.11 0.11 0.12 0.07 0.07 0.09 0.16 0.15 0.11 0.08 0.08 0.08 0.08 0.10 0.08 0.06 0.05 0.04 0.03 0.04 0.04 0.04
0.00 0.00 0.00 0.00 0.01 0.01 0.01 0.01 0.01 0.01 0.02 0.03 0.04 0.05 0.06 0.06 0.06 0.06 0.07 0.06 0.06 0.07 0.07 0.06 0.06 0.08 0.10 0.13 0.11 0.08 0.08 0.07 0.07 0.07 0.07 0.09 0.10 0.06 0.04 0.03 0.03 0.04 0.04
0.00 0.00 0.00 0.00 0.01 0.02 0.02 0.01 0.01 0.02 0.02 0.02 0.04 0.04 0.03 0.04 0.05 0.06 0.06 0.07 0.06 0.04 0.03 0.03 0.04 0.05 0.09 0.07 0.05 0.05 0.06 0.06 0.08 0.08 0.07 0.08 0.11 0.06 0.04 0.03 0.02 0.03 0.03
0.00 0.00 0.00 0.00 0.00 0.01 0.01 0.02 0.01 0.01 0.01 0.02 0.02 0.02 0.02 0.02 0.03 0.04 0.04 0.06 0.05 0.03 0.03 0.03 0.03 0.05 0.05 0.03 0.03 0.04 0.04 0.06 0.08 0.08 0.07 0.08 0.09 0.06 0.04 0.03 0.04 0.04 0.04
0.00 0.00 0.00 0.00 0.00 0.00 0.01 0.01 0.01 0.01 0.01 0.02 0.01 0.01 0.02 0.01 0.02 0.04 0.05 0.05 0.05 0.04 0.04 0.04 0.03 0.05 0.04 0.03 0.04 0.05 0.05 0.06 0.07 0.08 0.08 0.09 0.09 0.08 0.05 0.04 0.04 0.04 0.04
0.00 0.00 0.00 0.00 0.01 0.01 0.01 0.01 0.01 0.00 0.01 0.01 0.02 0.01 0.01 0.02 0.02 0.03 0.04 0.05 0.06 0.06 0.07 0.06 0.05 0.05 0.05 0.06 0.07 0.08 0.09 0.09 0.09 0.09 0.09 0.09 0.08 0.08 0.09 0.08 0.06 0.06 0.04
0.00 0.00 0.01 0.00 0.01 0.01 0.01 0.01 0.01 0.00 0.01 0.01 0.01 0.01 0.01 0.02 0.03 0.04 0.04 0.05 0.07 0.10 0.13 0.13 0.13 0.12 0.12 0.12 0.09 0.09 0.09 0.10 0.08 0.09 0.12 0.10 0.06 0.06 0.09 0.10 0.08 0.09 0.06
0.01 0.01 0.01 0.01 0.01 0.02 0.01 0.01 0.01 0.01 0.01 0.01 0.02 0.03 0.04 0.03 0.03 0.05 0.06 0.06 0.10 0.14 0.16 0.18 0.19 0.18 0.17 0.14 0.12 0.11 0.09 0.08 0.07 0.08 0.10 0.11 0.06 0.04 0.05 0.07 0.07 0.09 0.10
0.01 0.01 0.01 0.01 0.01 0.01 0.01 0.01 0.01 0.02 0.03 0.02 0.03 0.04 0.05 0.04 0.03 0.03 0.04 0.04 0.06 0.10 0.11 0.09 0.11 0.12 0.11 0.09 0.09 0.09 0.09 0.10 0.09 0.07 0.08 0.07 0.05 0.06 0.05 0.05 0.05 0.07 0.09
0.02 0.01 0.01 0.01 0.01 0.01 0.02 0.02 0.03 0.03 0.04 0.04 0.03 0.04 0.05 0.04 0.04 0.04 0.05 0.06 0.07 0.08 0.08 0.08 0.10 0.10 0.09 0.07 0.07 0.06 0.07 0.08 0.07 0.06 0.08 0.08 0.06 0.06 0.05 0.03 0.04 0.05 0.07
0.01 0.01 0.01 0.01 0.00 0.00 0.01 0.02 0.02 0.03 0.03 0.04 0.04 0.05 0.05 0.05 0.05 0.04 0.05 0.06 0.07 0.09 0.07 0.07 0.08 0.08 0.08 0.06 0.05 0.06 0.06 0.06 0.05 0.05 0.08 0.07 0.06 0.05 0.04 0.02 0.03 0.03 0.03
0.00 0.01 0.01 0.00 0.00 0.01 0.01 0.02 0.01 0.02 0.02 0.03 0.04 0.04 0.05 0.05 0.05 0.04 0.04 0.06 0.06 0.06 0.05 0.06 0.07 0.07 0.08 0.08 0.07 0.06 0.05 0.04 0.03 0.06 0.07 0.06 0.05 0.04 0.04 0.03 0.03 0.03 0.04
0.00 0.00 0.00 0.00 0.00 0.01 0.01 0.02 0.02 0.01 0.02 0.02 0.03 0.03 0.04 0.05 0.05 0.05 0.05 0.06 0.06 0.07 0.07 0.07 0.06 0.05 0.06 0.07 0.08 0.09 0.07 0.05 0.05 0.06 0.06 0.05 0.05 0.04 0.04 0.04 0.04 0.04 0.04
0.00 0.00 0.00 0.00 0.01 0.01 0.01 0.01 0.01 0.01 0.01 0.02 0.04 0.03 0.03 0.05 0.05 0.05 0.05 0.05 0.06 0.07 0.07 0.06 0.06 0.04 0.04 0.05 0.06 0.06 0.06 0.06 0.06 0.06 0.07 0.07 0.06 0.04 0.04 0.05 0.05 0.06 0.05
0.00 0.00 0.00 0.00 0.01 0.01 0.01 0.01 0.01 0.01 0.01 0.02 0.03 0.03 0.03 0.04 0.04 0.04 0.06 0.06 0.07 0.06 0.06 0.05 0.05 0.05 0.05 0.05 0.05 0.05 0.05 0.05 0.05 0.06 0.09 0.08 0.07 0.05 0.05 0.04 0.05 0.04 0.04
0.01 0.01 0.01 0.01 0.01 0.01 0.02 0.02 0.01 0.02 0.02 0.01 0.02 0.03 0.03 0.04 0.05 0.06 0.08 0.08 0.08 0.07 0.07 0.05 0.06 0.07 0.07 0.07 0.06 0.07 0.07 0.07 0.06 0.05 0.06 0.06 0.07 0.07 0.06 0.05 0.05 0.05 0.03
0.01 0.01 0.01 0.01 0.02 0.02 0.03 0.03 0.03 0.04 0.03 0.03 0.04 0.03 0.03 0.03 0.05 0.06 0.06 0.07 0.09 0.10 0.08 0.07 0.09 0.11 0.11 0.11 0.12 0.14 0.09 0.06 0.04 0.05 0.05 0.05 0.06 0.06 0.08 0.07 0.07 0.06 0.05
0.01 0.01 0.01 0.01 0.02 0.02 0.02 0.03 0.03 0.04 0.03 0.04 0.05 0.04 0.03 0.03 0.03 0.06 0.05 0.07 0.09 0.11 0.09 0.08 0.10 0.13 0.13 0.13 0.12 0.13 0.08 0.04 0.05 0.04 0.04 0.05 0.04 0.05 0.07 0.06 0.05 0.06 0.05
0.01 0.01 0.01 0.01 0.01 0.02 0.02 0.02 0.03 0.04 0.03 0.04 0.05 0.07 0.05 0.05 0.05 0.07 0.08 0.08 0.10 0.13 0.13 0.13 0.13 0.13 0.13 0.14 0.12 0.11 0.11 0.09 0.07 0.04 0.03 0.03 0.04 0.03 0.03 0.03 0.04 0.04 0.04
0.01 0.01 0.01 0.02 0.02 0.02 0.02 0.02 0.03 0.05 0.05 0.05 0.05 0.06 0.06 0.05 0.05 0.09 0.13 0.13 0.14 0.14 0.15 0.15 0.15 0.15 0.15 0.14 0.12 0.10 0.11 0.12 0.09 0.04 0.02 0.02 0.02 0.03 0.03 0.03 0.03 0.03 0.03
0.01 0.01 0.01 0.02 0.01 0.02 0.02 0.03 0.04 0.04 0.05 0.04 0.04 0.05 0.05 0.05 0.05 0.06 0.08 0.11 0.14 0.14 0.15 0.14 0.15 0.14 0.14 0.12 0.09 0.07 0.07 0.10 0.10 0.06 0.04 0.03 0.03 0.04 0.04 0.03 0.03 0.02 0.03
0.00 0.00 0.01 0.01 0.01 0.02 0.03 0.05 0.05 0.04 0.04 0.04 0.04 0.06 0.06 0.06 0.04 0.03 0.03 0.05 0.07 0.08 0.10 0.10 0.10 0.09 0.08 0.08 0.07 0.07 0.06 0.07 0.06 0.05 0.05 0.05 0.04 0.03 0.03 0.03 0.04 0.03 0.03
0.01 0.00 0.01 0.02 0.03 0.03 0.03 0.04 0.04 0.04 0.04 0.05 0.05 0.06 0.05 0.06 0.05 0.03 0.02 0.03 0.05 0.06 0.08 0.08 0.08 0.07 0.06 0.07 0.07 0.07 0.07 0.07 0.05 0.07 0.06 0.06 0.06 0.04 0.03 0.03 0.04 0.03 0.04
MSLP
1003.79 1003.68 1003.77 1004.04 1004.44 1004.84 1005.14 1005.28 1005.23 1005.03 1004.77 1004.54 1004.45 1004.54 1004.82 1005.24 1005.73 1006.22 1006.65 1006.98 1007.25 1007.48 1007.73 1008.03 1008.41 1008.84 1009.31 1009.77 1010.19 1010.54 1010.83 1011.08 1011.33 1011.59 1011.88 1012.21 1012.57 1012.92 1013.27 1013.59 1013.89 1014.18 1014.47
1003.80 1003.82 1004.03 1004.40 1004.83 1005.23 1005.50 1005.57 1005.44 1005.18 1004.88 1004.66 1004.60 1004.75 1005.10 1005.60 1006.16 1006.71 1007.17 1007.52 1007.78 1007.99 1008.20 1008.46 1008.78 1009.17 1009.59 1010.01 1010.38 1010.71 1010.98 1011.22 1011.46 1011.73 1012.03 1012.38 1012.74 1013.11 1013.46 1013.79 1014.09 1014.39 1014.69
1003.69 1003.85 1004.19 1004.66 1005.16 1005.59 1005.83 1005.85 1005.67 1005.36 1005.02 1004.78 1004.72 1004.90 1005.28 1005.82 1006.42 1006.99 1007.48 1007.86 1008.14 1008.36 1008.59 1008.84 1009.16 1009.53 1009.92 1010.30 1010.65 1010.95 1011.21 1011.44 1011.69 1011.97 1012.29 1012.64 1013.02 1013.38 1013.73 1014.04 1014.34 1014.62 1014.92
1003.47 1003.77 1004.23 1004.81 1005.39 1005.84 1006.09 1006.10 1005.89 1005.54 1005.18 1004.92 1004.85 1005.01 1005.39 1005.92 1006.52 1007.10 1007.61 1008.02 1008.35 1008.63 1008.90 1009.21 1009.56 1009.94 1010.33 1010.70 1011.02 1011.30 1011.54 1011.78 1012.03 1012.32 1012.65 1013.02 1013.39 1013.75 1014.08 1014.37 1014.64 1014.90 1015.18
1003.18 1003.59 1004.17 1004.84 1005.49 1005.99 1006.27 1006.29 1006.08 1005.73 1005.36 1005.09 1004.99 1005.12 1005.46 1005.95 1006.51 1007.08 1007.60 1008.05 1008.44 1008.80 1009.17 1009.56 1009.97 1010.40 1010.81 1011.18 1011.49 1011.75 1011.98 1012.21 1012.47 1012.77 1013.11 1013.48 1013.86 1014.20 1014.51 1014.77 1015.00 1015.22 1015.47
1002.91 1003.39 1004.05 1004.79 1005.49 1006.04 1006.35 1006.41 1006.23 1005.91 1005.55 1005.28 1005.16 1005.25 1005.53 1005.96 1006.47 1007.00 1007.52 1008.00 1008.46 1008.92 1009.39 1009.89 1010.39 1010.88 1011.33 1011.71 1012.02 1012.26 1012.48 1012.70 1012.96 1013.27 1013.62 1014.00 1014.37 1014.70 1014.98 1015.20 1015.39 1015.57 1015.78
1002.71 1003.24 1003.93 1004.71 1005.43 1006.01 1006.36 1006.45 1006.32 1006.05 1005.73 1005.48 1005.36 1005.42 1005.64 1005.99 1006.43 1006.91 1007.41 1007.91 1008.43 1008.98 1009.57 1010.17 1010.77 1011.33 1011.83 1012.22 1012.53 1012.77 1012.97 1013.19 1013.45 1013.76 1014.13 1014.52 1014.88 1015.21 1015.46 1015.65 1015.80 1015.94 1016.10
1002.64 1003.18 1003.88 1004.64 1005.36 1005.94 1006.30 1006.43 1006.35 1006.15 1005.89 1005.68 1005.58 1005.61 1005.79 1006.07 1006.43 1006.85 1007.32 1007.83 1008.38 1009.00 1009.67 1010.37 1011.05 1011.69 1012.22 1012.65 1012.96 1013.20 1013.39 1013.60 1013.86 1014.18 1014.56 1014.96 1015.33 1015.66 1015.90 1016.08 1016.20 1016.30 1016.43
1002.72 1003.24 1003.91 1004.63 1005.31 1005.85 1006.21 1006.36 1006.33 1006.19 1006.01 1005.85 1005.79 1005.82 1005.97 1006.19 1006.49 1006.84 1007.26 1007.74 1008.32 1008.97 1009.70 1010.46 1011.21 1011.90 1012.48 1012.92 1013.25 1013.49 1013.68 1013.90 1014.16 1014.49 1014.88 1015.29 1015.68 1016.02 1016.27 1016.45 1016.56 1016.65 1016.75
1002.89 1003.40 1004.02 1004.69 1005.30 1005.79 1006.11 1006.26 1006.27 1006.18 1006.07 1005.98 1005.97 1006.03 1006.16 1006.35 1006.59 1006.89 1007.25 1007.70 1008.25 1008.91 1009.65 1010.45 1011.24 1011.97 1012.58 1013.05 1013.39 1013.64 1013.84 1014.05 1014.32 1014.66 1015.07 1015.50 1015.91 1016.28 1016.56 1016.76 1016.89 1016.98 1017.08
1003.11 1003.61 1004.20 1004.80 1005.34 1005.76 1006.03 1006.16 1006.18 1006.14 1006.09 1006.07 1006.11 1006.21 1006.35 1006.53 1006.73 1006.98 1007.29 1007.70 1008.21 1008.84 1009.58 1010.38 1011.18 1011.92 1012.55 1013.05 1013.41 1013.68 1013.89 1014.12 1014.39 1014.74 1015.16 1015.61 1016.05 1016.46 1016.78 1017.02 1017.19 1017.31 1017.41
1003.32 1003.84 1004.41 1004.96 1005.43 1005.78 1006.00 1006.10 1006.11 1006.10 1006.09 1006.14 1006.23 1006.37 1006.54 1006.73 1006.92 1007.14 1007.41 1007.77 1008.24 1008.84 1009.54 1010.32 1011.11 1011.85 1012.49 1013.01 1013.39 1013.68 1013.91 1014.15 1014.43 1014.78 1015.20 1015.67 1016.14 1016.58 1016.96 1017.25 1017.47 1017.64 1017.78
1003.47 1004.03 1004.61 1005.14 1005.56 1005.86 1006.03 1006.09 1006.10 1006.10 1006.12 1006.21 1006.35 1006.53 1006.74 1006.95 1007.16 1007.38 1007.63 1007.96 1008.39 1008.94 1009.60 1010.34 1011.11 1011.84 1012.49 1013.02 1013.42 1013.73 1013.98 1014.23 1014.51 1014.85 1015.27 1015.73 1016.22 1016.69 1017.11 1017.47 1017.76 1017.98 1018.17
1003.57 1004.18 1004.78 1005.31 1005.72 1006.00 1006.14 1006.18 1006.17 1006.17 1006.21 1006.32 1006.49 1006.71 1006.96 1007.20 1007.44 1007.68 1007.94 1008.26 1008.67 1009.20 1009.82 1010.53 1011.26 1011.98 1012.62 1013.16 1013.59 1013.91 1014.18 1014.43 1014.70 1015.03 1015.42 1015.87 1016.35 1016.83 1017.28 1017.69 1018.04 1018.32 1018.55
1003.62 1004.28 1004.93 1005.48 1005.91 1006.18 1006.33 1006.36 1006.35 1006.34 1006.38 1006.49 1006.67 1006.92 1007.20 1007.48 1007.76 1008.04 1008.34 1008.69 1009.11 1009.62 1010.22 1010.90 1011.61 1012.30 1012.94 1013.48 1013.92 1014.27 1014.55 1014.79 1015.04 1015.34 1015.69 1016.09 1016.54 1017.01 1017.47 1017.91 1018.29 1018.63 1018.91
1003.66 1004.36 1005.03 1005.62 1006.09 1006.40 1006.57 1006.63 1006.63 1006.62 1006.65 1006.74 1006.92 1007.16 1007.46 1007.78 1008.11 1008.45 1008.81 1009.21 1009.66 1010.19 1010.79 1011.45 1012.14 1012.82 1013.45 1014.00 1014.45 1014.80 1015.09 1015.32 1015.55 1015.80 1016.09 1016.43 1016.82 1017.24 1017.68 1018.10 1018.51 1018.86 1019.17
1003.72 1004.41 1005.09 1005.71 1006.22 1006.59 1006.82 1006.93 1006.96 1006.96 1006.98 1007.05 1007.20 1007.43 1007.72 1008.07 1008.45 1008.86 1009.29 1009.76 1010.27 1010.84 1011.46 1012.12 1012.80 1013.47 1014.09 1014.63 1015.09 1015.46 1015.74 1015.97 1016.17 1016.37 1016.59 1016.86 1017.16 1017.51 1017.88 1018.27 1018.64 1019.00 1019.32
1003.83 1004.44 1005.09 1005.72 1006.28 1006.72 1007.03 1007.21 1007.30 1007.32 1007.34 1007.39 1007.51 1007.71 1007.98 1008.34 1008.76 1009.23 1009.74 1010.28 1010.87 1011.49 1012.14 1012.81 1013.48 1014.14 1014.75 1015.30 1015.76 1016.13 1016.42 1016.65 1016.83 1016.98 1017.15 1017.32 1017.53 1017.78 1018.07 1018.37 1018.69 1019.02 1019.32
1003.97 1004.44 1005.01 1005.62 1006.21 1006.72 1007.13 1007.41 1007.58 1007.65 1007.69 1007.73 1007.81 1007.97 1008.23 1008.58 1009.02 1009.54 1010.11 1010.73 1011.39 1012.05 1012.74 1013.42 1014.09 1014.74 1015.34 1015.88 1016.34 1016.73 1017.03 1017.27 1017.44 1017.57 1017.67 1017.78 1017.89 1018.03 1018.21 1018.41 1018.65 1018.91 1019.18
1004.11 1004.39 1004.83 1005.39 1005.99 1006.58 1007.08 1007.48 1007.74 1007.90 1007.98 1008.03 1008.09 1008.23 1008.46 1008.79 1009.24 1009.78 1010.40 1011.08 1011.78 1012.48 1013.19 1013.87 1014.53 1015.16 1015.73 1016.26 1016.73 1017.14 1017.47 1017.72 1017.91 1018.03 1018.11 1018.16 1018.19 1018.23 1018.29 1018.39 1018.53 1018.71 1018.92
1004.26 1004.30 1004.57 1005.04 1005.63 1006.27 1006.87 1007.39 1007.78 1008.03 1008.18 1008.27 1008.34 1008.46 1008.66 1008.98 1009.42 1009.97 1010.60 1011.30 1012.02 1012.74 1013.44 1014.11 1014.74 1015.33 1015.88 1016.39 1016.86 1017.28 1017.65 1017.95 1018.17 1018.32 1018.39 1018.41 1018.38 1018.34 1018.30 1018.30 1018.34 1018.43 1018.59
1004.40 1004.19 1004.27 1004.62 1005.17 1005.83 1006.52 1007.14 1007.66 1008.03 1008.28 1008.43 1008.54 1008.67 1008.86 1009.16 1009.58 1010.11 1010.74 1011.42 1012.13 1012.83 1013.49 1014.11 1014.69 1015.23 1015.74 1016.23 1016.70 1017.14 1017.54 1017.89 1018.17 1018.36 1018.47 1018.49 1018.45 1018.35 1018.24 1018.15 1018.11 1018.13 1018.22
1004.58 1004.12 1004.00 1004.21 1004.69 1005.34 1006.07 1006.78 1007.41 1007.91 1008.27 1008.51 1008.68 1008.85 1009.05 1009.34 1009.74 1010.24 1010.83 1011.47 1012.13 1012.77 1013.37 1013.92 1014.43 1014.90 1015.36 1015.81 1016.26 1016.72 1017.16 1017.56 1017.91 1018.17 1018.33 1018.39 1018.36 1018.25 1018.11 1017.96 1017.86 1017.82 1017.87
1004.86 1004.18 1003.86 1003.92 1004.28 1004.88 1005.61 1006.37 1007.08 1007.68 1008.14 1008.49 1008.75 1008.97 1009.21 1009.52 1009.90 1010.36 1010.90 1011.48 1012.06 1012.62 1013.14 1013.60 1014.02 1014.41 1014.79 1015.20 1015.63 1016.08 1016.55 1017.01 1017.42 1017.76 1017.99 1018.11 1018.12 1018.04 1017.90 1017.73 1017.60 1017.53 1017.55
1005.33 1004.46 1003.96 1003.84 1004.06 1004.54 1005.21 1005.95 1006.69 1007.35 1007.91 1008.35 1008.71 1009.02 1009.31 1009.64 1010.02 1010.46 1010.95 1011.46 1011.96 1012.43 1012.85 1013.22 1013.54 1013.84 1014.16 1014.50 1014.90 1015.34 1015.82 1016.31 1016.78 1017.19 1017.50 1017.70 1017.77 1017.73 1017.62 1017.48 1017.35 1017.28 1017.29
1006.04 1005.04 1004.36 1004.06 1004.09 1004.41 1004.94 1005.59 1006.29 1006.97 1007.58 1008.10 1008.54 1008.93 1009.30 1009.68 1010.08 1010.51 1010.97 1011.42 1011.85 1012.24 1012.57 1012.85 1013.09 1013.31 1013.55 1013.83 1014.18 1014.59 1015.07 1015.58 1016.08 1016.54 1016.92 1017.18 1017.33 1017.37 1017.32 1017.22 1017.11 1017.06 1017.08
Thickness
5812 5808 5802 5798 5795 5793 5791 5790 5788 5786 5785 5783 5782 5781 5780 5778 5778 5777 5776 5775 5774 5773 5772 5771 5771 5770 5769 5768 5766 5766 5765 5764 5763 5763 5763 5762 5761 5761 5760 5760 5759 5758 5756
5815 5807 5801 5798 5794 5792 5790 5788 5787 5785 5784 5782 5781 5780 5778 5777 5776 5775 5774 5773 5772 5771 5771 5770 5769 5768 5767 5765 5764 5763 5763 5762 5762 5762 5761 5760 5759 5758 5757 5757 5757 5755 5754
5816 5808 5801 5797 5794 5791 5789 5787 5785 5784 5782 5781 5780 5778 5777 5775 5774 5773 5772 5771 5770 5770 5770 5768 5767 5765 5764 5763 5762 5762 5761 5761 5761 5760 5760 5759 5758 5756 5756 5755 5754 5753 5752
5817 5809 5802 5796 5793 5790 5788 5785 5784 5782 5781 5779 5778 5777 5775 5774 5772 5771 5770 5769 5768 5767 5767 5766 5765 5764 5763 5762 5761 5760 5760 5760 5760 5760 5759 5759 5757 5755 5755 5753 5752 5751 5750
5817 5808 5800 5796 5792 5789 5787 5784 5782 5781 5779 5778 5777 5775 5774 5772 5771 5769 5768 5767 5766 5765 5764 5764 5763 5762 5761 5761 5760 5759 5759 5759 5759 5759 5759 5758 5756 5754 5753 5752 5750 5749 5748
5816 5808 5800 5795 5791 5789 5786 5783 5781 5779 5778 5776 5775 5774 5773 5771 5769 5768 5767 5766 5764 5763 5763 5762 5761 5760 5760 5760 5759 5759 5758 5758 5758 5758 5758 5756 5754 5752 5751 5750 5749 5747 5746
5816 5807 5800 5795 5791 5788 5785 5782 5780 5778 5776 5775 5773 5772 5771 5770 5768 5767 5765 5764 5763 5762 5761 5760 5760 5759 5759 5759 5758 5758 5758 5757 5757 5757 5756 5755 5752 5751 5750 5749 5747 5746 5744
5815 5807 5799 5794 5791 5787 5784 5781 5779 5776 5774 5773 5772 5770 5769 5768 5767 5765 5764 5763 5762 5761 5759 5759 5758 5758 5757 5758 5757 5757 5757 5756 5756 5755 5753 5752 5751 5749 5748 5747 5745 5744 5743
5815 5807 5800 5795 5790 5787 5783 5781 5778 5776 5773 5772 5770 5769 5768 5767 5766 5764 5763 5762 5761 5760 5759 5758 5757 5757 5756 5756 5756 5756 5755 5754 5754 5753 5751 5749 5749 5748 5746 5745 5744 5742 5741
5815 5808 5802 5797 5792 5787 5783 5780 5778 5775 5773 5771 5770 5768 5767 5766 5765 5764 5762 5761 5760 5759 5758 5757 5756 5756 5756 5756 5755 5755 5754 5753 5753 5751 5749 5747 5746 5746 5745 5744 5743 5741 5740
5811 5807 5803 5799 5793 5789 5785 5781 5777 5775 5772 5771 5769 5768 5767 5766 5765 5764 5762 5760 5759 5758 5757 5756 5756 5755 5755 5755 5754 5754 5754 5752 5752 5750 5748 5746 5745 5745 5744 5743 5742 5741 5739
5804 5804 5802 5799 5795 5791 5787 5782 5778 5776 5773 5771 5770 5768 5767 5767 5766 5764 5762 5760 5759 5758 5757 5756 5755 5755 5754 5754 5754 5754 5754 5753 5751 5749 5747 5745 5745 5744 5743 5742 5741 5740 5739
5805 5802 5801 5799 5795 5791 5787 5783 5780 5778 5774 5773 5770 5769 5768 5767 5765 5763 5761 5759 5758 5757 5757 5756 5755 5755 5755 5755 5755 5754 5754 5753 5751 5749 5746 5744 5744 5743 5742 5741 5740 5739 5738
5805 5802 5801 5798 5794 5790 5787 5784 5781 5778 5775 5773 5770 5768 5767 5766 5765 5763 5761 5760 5759 5758 5757 5757 5756 5755 5755 5755 5754 5754 5753 5752 5750 5748 5745 5744 5742 5742 5741 5740 5739 5738 5737
5803 5801 5800 5797 5792 5789 5785 5783 5781 5778 5776 5772 5769 5767 5765 5764 5763 5762 5760 5759 5758 5758 5757 5756 5755 5754 5754 5753 5753 5753 5752 5751 5750 5747 5744 5743 5742 5741 5740 5739 5738 5737 5735
5803 5800 5799 5795 5791 5788 5784 5781 5780 5778 5774 5772 5769 5766 5764 5762 5761 5759 5757 5757 5756 5756 5755 5755 5754 5753 5752 5752 5751 5751 5751 5750 5749 5747 5745 5742 5741 5740 5739 5738 5737 5736 5734
5803 5800 5796 5794 5790 5786 5783 5781 5779 5776 5774 5771 5767 5764 5762 5760 5759 5757 5756 5754 5754 5754 5754 5753 5752 5752 5750 5750 5749 5749 5748 5748 5747 5746 5744 5743 5741 5739 5738 5737 5735 5734 5733
5803 5798 5796 5794 5788 5784 5781 5779 5777 5775 5772 5769 5766 5763 5760 5758 5757 5755 5754 5752 5752 5752 5751 5751 5750 5748 5747 5746 5745 5745 5745 5745 5744 5743 5743 5742 5741 5740 5737 5736 5734 5733 5732
5802 5797 5794 5791 5787 5783 5780 5777 5775 5773 5770 5768 5765 5761 5759 5756 5754 5753 5751 5750 5749 5749 5749 5748 5746 5745 5743 5742 5741 5741 5742 5742 5741 5741 5740 5740 5739 5738 5737 5735 5733 5731 5730
5801 5796 5792 5788 5785 5782 5778 5775 5772 5770 5767 5766 5763 5760 5757 5754 5752 5750 5749 5748 5747 5746 5745 5744 5742 5742 5741 5740 5739 5738 5739 5740 5740 5739 5739 5738 5738 5737 5736 5734 5732 5731 5729
5798 5793 5789 5785 5782 5779 5775 5771 5767 5764 5764 5762 5761 5758 5755 5752 5751 5749 5747 5745 5744 5742 5741 5740 5739 5738 5737 5738 5734 5732 5734 5737 5737 5737 5737 5736 5736 5735 5734 5733 5732 5730 5728
5795 5791 5787 5783 5780 5777 5774 5771 5768 5765 5763 5761 5759 5756 5753 5751 5749 5747 5744 5743 5741 5739 5738 5737 5736 5734 5734 5735 5731 5727 5723 5724 5730 5735 5735 5734 5733 5733 5733 5732 5731 5729 5728
5792 5789 5786 5782 5778 5776 5773 5770 5767 5763 5760 5757 5755 5753 5751 5749 5747 5745 5742 5741 5739 5737 5734 5734 5733 5730 5728 5731 5732 5727 5719 5714 5720 5727 5730 5731 5731 5730 5730 5730 5728 5728 5726
5792 5789 5785 5780 5777 5773 5771 5767 5762 5757 5753 5753 5753 5751 5750 5748 5745 5743 5740 5738 5736 5735 5733 5732 5731 5730 5728 5725 5728 5729 5728 5723 5717 5716 5722 5726 5727 5726 5727 5727 5727 5726 5724
5792 5788 5783 5778 5774 5771 5769 5765 5761 5757 5755 5754 5752 5749 5747 5745 5743 5740 5738 5736 5734 5732 5731 5730 5730 5728 5728 5725 5725 5725 5725 5724 5723 5716 5712 5717 5720 5723 5724 5724 5724 5723 5722
5790 5787 5782 5776 5771 5769 5766 5763 5759 5756 5753 5750 5747 5745 5743 5742 5740 5738 5736 5733 5732 5730 5729 5728 5728 5726 5725 5725 5724 5724 5722 5719 5717 5715 5711 5711 5712 5717 5721 5722 5720 5719 5719